Overview Statistics Trail Chart Weather Telemetry Raw packets
 

This is the latest recevied weather packets stored in our database for station/object EA8BQU-10. If no packets are shown the sender has not sent any weather packets the latest 10 day(s).

<< 37 38 39 40 41 42 >>
Time Temp. Humidity Pressure Rain* Wind** Luminosity Snow
1787837745 24.44° C 100% 1020.2 hPa - - - -
1787836845 24.44° C 100% 1020.3 hPa - - - -
1787835944 24.44° C 100% 1020.2 hPa - - - -
1787835044 25° C 100% 1020.4 hPa - - - -
1787834144 25° C 100% 1020.5 hPa - - - -
1787833246 24.44° C 100% 1020.5 hPa - - - -
1787832344 23.89° C 100% 1020.3 hPa - - - -
1787831444 23.33° C 100% 1020.4 hPa - - - -
1787830544 23.33° C 100% 1020.3 hPa - - - -
1787829644 23.89° C 100% 1020.4 hPa - - - -
1787828749 23.89° C 100% 1020.3 hPa - - - -
1787827848 23.89° C 100% 1020.3 hPa - - - -
1787826948 23.89° C 100% 1020.2 hPa - - - -
1787826048 24.44° C 100% 1020.2 hPa - - - -
1787825148 24.44° C 100% 1020.1 hPa - - - -
1787824248 23.89° C 100% 1020.1 hPa - - - -
1787823348 23.33° C 100% 1020 hPa - - - -
1787822448 24.44° C 100% 1019.9 hPa - - - -
1787821548 23.33° C 100% 1019.8 hPa - - - -
1787820647 23.33° C 100% 1019.6 hPa - - - -
1787819747 23.33° C 100% 1019.5 hPa - - - -
1787818847 23.33° C 100% 1019.4 hPa - - - -
1787817947 24.44° C 100% 1019.2 hPa - - - -
1787817047 23.33° C 100% 1019.2 hPa - - - -
1787816147 23.33° C 100% 1019 hPa - - - -

* Rain since midnight (hover to see other rain measurements)
** Current wind speed in m/s (hover to see current wind gust speed)